Location: Dugenta
(41.1333°N, 14.4500°E)
Time: 13:20:37
(UTC+00:00)

SAR-Lupe-4 - Pass Details

Date: 03 March 2021
Orbit: 483 x 483 km, 98.2° (Epoch: 13 April)

Event Time Altitude Azimuth Distance (km) Brightness Sun altitude
Rises 18:01:32 0° 11° (N) 2,559 7.2 -13.2°
Reaches altitude 10° 18:03:36 10° 9° (N) 1,674 6.2 -13.6°
Maximum altitude 18:07:11 73° 285° (WNW) 509 3.8 -14.3°
Drops below altitude 10° 18:10:45 10° 200° (SSW) 1,659 6.5 -15.0°
Sets 18:12:48 0° 199° (SSW) 2,534 7.4 -15.3°
